QPF
0.00 0.00 0.01 0.01 0.02 0.02 0.01 0.00 0.00 0.00 0.01 0.00 0.00 0.00 0.01 0.01 0.03 0.05 0.02 0.01 0.01 0.01 0.04 0.08 0.12 0.18 0.16 0.13 0.10 0.09 0.10 0.09 0.11 0.12 0.08 0.09 0.10 0.11 0.12 0.12 0.15 0.16 0.17 0.17 0.20 0.21 0.17 0.14 0.13
0.00 0.01 0.01 0.01 0.01 0.02 0.01 0.00 0.00 0.00 0.00 0.00 0.00 0.00 0.00 0.01 0.01 0.02 0.02 0.01 0.01 0.01 0.04 0.08 0.12 0.16 0.13 0.10 0.09 0.10 0.10 0.11 0.12 0.13 0.08 0.08 0.09 0.11 0.13 0.18 0.17 0.13 0.14 0.18 0.23 0.21 0.18 0.14 0.13
0.00 0.01 0.01 0.02 0.01 0.01 0.01 0.00 0.00 0.00 0.00 0.00 0.00 0.00 0.01 0.01 0.01 0.02 0.02 0.01 0.01 0.02 0.03 0.07 0.09 0.12 0.12 0.13 0.21 0.31 0.26 0.15 0.13 0.15 0.11 0.10 0.10 0.11 0.13 0.19 0.14 0.13 0.13 0.15 0.22 0.23 0.19 0.15 0.14
0.00 0.01 0.01 0.01 0.01 0.00 0.00 0.00 0.00 0.00 0.00 0.00 0.00 0.00 0.01 0.01 0.01 0.02 0.01 0.01 0.01 0.01 0.02 0.04 0.07 0.09 0.09 0.13 0.23 0.30 0.30 0.21 0.16 0.15 0.13 0.09 0.08 0.09 0.14 0.21 0.16 0.15 0.15 0.15 0.20 0.20 0.17 0.14 0.14
0.00 0.00 0.01 0.01 0.00 0.00 0.00 0.00 0.00 0.00 0.00 0.00 0.00 0.00 0.01 0.01 0.01 0.01 0.01 0.02 0.02 0.01 0.01 0.04 0.07 0.07 0.07 0.09 0.12 0.17 0.18 0.19 0.19 0.18 0.12 0.07 0.07 0.08 0.12 0.19 0.20 0.17 0.16 0.18 0.20 0.17 0.14 0.13 0.12
0.01 0.00 0.01 0.01 0.01 0.00 0.01 0.00 0.00 0.00 0.00 0.00 0.00 0.00 0.01 0.01 0.00 0.00 0.01 0.02 0.02 0.02 0.02 0.04 0.05 0.05 0.05 0.06 0.06 0.07 0.09 0.11 0.12 0.10 0.08 0.08 0.09 0.09 0.09 0.13 0.18 0.21 0.21 0.21 0.18 0.14 0.12 0.11 0.10
0.02 0.01 0.01 0.01 0.02 0.01 0.00 0.00 0.00 0.00 0.01 0.01 0.00 0.01 0.01 0.01 0.01 0.01 0.01 0.01 0.02 0.04 0.05 0.05 0.04 0.04 0.04 0.06 0.06 0.06 0.07 0.08 0.08 0.08 0.08 0.08 0.08 0.07 0.06 0.08 0.11 0.15 0.18 0.17 0.15 0.11 0.09 0.09 0.09
0.01 0.01 0.01 0.01 0.02 0.01 0.00 0.00 0.01 0.01 0.01 0.00 0.00 0.01 0.01 0.00 0.01 0.01 0.01 0.01 0.02 0.05 0.06 0.05 0.04 0.03 0.03 0.03 0.03 0.05 0.07 0.07 0.07 0.07 0.06 0.07 0.08 0.07 0.07 0.09 0.11 0.13 0.13 0.13 0.14 0.12 0.09 0.09 0.10
0.01 0.01 0.01 0.01 0.02 0.01 0.01 0.01 0.01 0.01 0.01 0.01 0.01 0.00 0.00 0.00 0.00 0.01 0.01 0.02 0.04 0.05 0.06 0.06 0.05 0.04 0.02 0.01 0.01 0.03 0.04 0.05 0.07 0.06 0.06 0.07 0.09 0.08 0.08 0.10 0.11 0.13 0.13 0.13 0.12 0.11 0.10 0.09 0.11
0.01 0.01 0.00 0.00 0.00 0.00 0.00 0.00 0.01 0.01 0.02 0.01 0.00 0.00 0.01 0.01 0.01 0.01 0.01 0.01 0.02 0.04 0.07 0.06 0.05 0.04 0.02 0.01 0.01 0.03 0.03 0.04 0.05 0.07 0.07 0.08 0.08 0.07 0.05 0.06 0.08 0.09 0.11 0.12 0.10 0.10 0.09 0.10 0.11
0.01 0.00 0.00 0.00 0.00 0.00 0.00 0.00 0.00 0.01 0.01 0.00 0.00 0.00 0.00 0.00 0.01 0.01 0.01 0.01 0.02 0.03 0.03 0.03 0.03 0.03 0.02 0.02 0.01 0.02 0.02 0.02 0.05 0.06 0.06 0.08 0.08 0.06 0.05 0.07 0.07 0.08 0.08 0.09 0.07 0.05 0.05 0.06 0.07
0.01 0.00 0.00 0.00 0.00 0.00 0.00 0.00 0.00 0.00 0.00 0.00 0.00 0.00 0.00 0.00 0.00 0.01 0.01 0.02 0.02 0.02 0.02 0.03 0.02 0.01 0.01 0.02 0.02 0.01 0.01 0.02 0.03 0.04 0.06 0.06 0.06 0.06 0.06 0.07 0.06 0.07 0.08 0.07 0.05 0.04 0.03 0.04 0.04
0.01 0.00 0.00 0.00 0.00 0.00 0.00 0.00 0.00 0.00 0.00 0.00 0.00 0.00 0.00 0.00 0.01 0.01 0.01 0.01 0.02 0.02 0.02 0.02 0.01 0.01 0.01 0.02 0.02 0.01 0.02 0.02 0.03 0.03 0.05 0.05 0.04 0.04 0.04 0.05 0.06 0.05 0.06 0.06 0.05 0.04 0.02 0.02 0.03
0.00 0.00 0.00 0.00 0.00 0.00 0.00 0.00 0.00 0.00 0.00 0.00 0.00 0.00 0.00 0.00 0.01 0.01 0.01 0.01 0.01 0.02 0.03 0.02 0.02 0.01 0.02 0.03 0.03 0.03 0.03 0.04 0.04 0.03 0.04 0.04 0.05 0.05 0.05 0.05 0.05 0.05 0.04 0.04 0.05 0.04 0.03 0.01 0.02
0.00 0.00 0.00 0.00 0.01 0.00 0.00 0.01 0.00 0.00 0.00 0.00 0.00 0.00 0.00 0.00 0.00 0.00 0.01 0.01 0.01 0.02 0.03 0.03 0.02 0.02 0.03 0.04 0.04 0.03 0.03 0.03 0.03 0.04 0.04 0.04 0.03 0.03 0.05 0.06 0.06 0.06 0.04 0.03 0.03 0.04 0.04 0.03 0.02
0.00 0.00 0.00 0.00 0.00 0.00 0.00 0.01 0.01 0.00 0.00 0.00 0.00 0.00 0.00 0.01 0.01 0.00 0.01 0.01 0.01 0.02 0.03 0.03 0.03 0.02 0.02 0.03 0.03 0.03 0.03 0.04 0.04 0.03 0.03 0.03 0.03 0.04 0.06 0.07 0.07 0.06 0.04 0.03 0.04 0.05 0.06 0.05 0.03
0.01 0.01 0.00 0.00 0.00 0.00 0.00 0.00 0.00 0.00 0.00 0.00 0.01 0.00 0.01 0.01 0.01 0.01 0.01 0.01 0.02 0.02 0.02 0.02 0.04 0.04 0.02 0.03 0.03 0.03 0.04 0.05 0.05 0.05 0.05 0.06 0.06 0.06 0.08 0.08 0.07 0.05 0.04 0.04 0.03 0.04 0.05 0.05 0.06
0.01 0.00 0.00 0.00 0.00 0.00 0.00 0.00 0.00 0.00 0.00 0.01 0.01 0.01 0.01 0.01 0.01 0.01 0.01 0.03 0.03 0.02 0.01 0.02 0.05 0.04 0.04 0.04 0.04 0.04 0.05 0.05 0.05 0.05 0.05 0.06 0.06 0.07 0.07 0.06 0.06 0.05 0.04 0.04 0.04 0.04 0.05 0.06 0.06
0.00 0.00 0.00 0.00 0.00 0.00 0.00 0.00 0.00 0.00 0.00 0.01 0.00 0.00 0.01 0.01 0.00 0.01 0.01 0.01 0.02 0.01 0.01 0.01 0.03 0.04 0.04 0.03 0.03 0.03 0.04 0.04 0.04 0.03 0.04 0.05 0.06 0.05 0.05 0.03 0.03 0.04 0.05 0.05 0.05 0.06 0.06 0.06 0.06
0.00 0.00 0.00 0.00 0.00 0.00 0.00 0.00 0.00 0.00 0.00 0.00 0.00 0.00 0.00 0.01 0.00 0.00 0.01 0.01 0.02 0.01 0.01 0.02 0.03 0.03 0.04 0.04 0.03 0.03 0.04 0.03 0.02 0.02 0.04 0.05 0.06 0.04 0.03 0.03 0.03 0.03 0.05 0.06 0.07 0.07 0.05 0.05 0.05
0.00 0.00 0.00 0.00 0.00 0.00 0.00 0.00 0.00 0.00 0.00 0.00 0.00 0.00 0.00 0.00 0.01 0.00 0.00 0.01 0.02 0.03 0.03 0.03 0.03 0.04 0.05 0.05 0.03 0.02 0.02 0.02 0.02 0.03 0.04 0.04 0.04 0.06 0.04 0.04 0.03 0.03 0.04 0.05 0.05 0.05 0.05 0.05 0.05
0.00 0.00 0.00 0.00 0.00 0.00 0.00 0.01 0.01 0.00 0.00 0.00 0.00 0.00 0.00 0.00 0.00 0.00 0.00 0.00 0.02 0.03 0.03 0.03 0.03 0.05 0.06 0.05 0.03 0.02 0.02 0.02 0.02 0.03 0.04 0.04 0.03 0.03 0.03 0.04 0.03 0.03 0.02 0.02 0.02 0.03 0.04 0.04 0.04
0.00 0.00 0.00 0.00 0.00 0.00 0.00 0.01 0.01 0.01 0.01 0.01 0.01 0.01 0.00 0.00 0.01 0.00 0.00 0.00 0.01 0.01 0.02 0.03 0.04 0.05 0.04 0.03 0.03 0.03 0.02 0.03 0.03 0.03 0.04 0.04 0.05 0.04 0.03 0.04 0.04 0.04 0.02 0.02 0.01 0.02 0.03 0.03 0.04
0.00 0.00 0.00 0.00 0.00 0.01 0.00 0.00 0.01 0.00 0.00 0.00 0.00 0.00 0.00 0.00 0.00 0.00 0.00 0.00 0.00 0.01 0.02 0.03 0.04 0.04 0.03 0.02 0.03 0.03 0.03 0.03 0.04 0.03 0.04 0.04 0.04 0.03 0.03 0.03 0.04 0.05 0.04 0.04 0.04 0.04 0.04 0.03 0.03
0.00 0.01 0.01 0.01 0.01 0.01 0.00 0.00 0.00 0.00 0.00 0.00 0.00 0.00 0.00 0.00 0.00 0.00 0.00 0.00 0.01 0.01 0.02 0.02 0.02 0.02 0.01 0.02 0.02 0.03 0.05 0.05 0.04 0.04 0.04 0.04 0.04 0.04 0.03 0.02 0.02 0.04 0.05 0.05 0.05 0.05 0.05 0.04 0.04
0.01 0.01 0.02 0.02 0.01 0.00 0.00 0.00 0.00 0.00 0.00 0.00 0.00 0.00 0.00 0.00 0.00 0.01 0.01 0.01 0.01 0.01 0.01 0.00 0.00 0.01 0.01 0.01 0.02 0.02 0.03 0.04 0.04 0.04 0.04 0.04 0.03 0.03 0.03 0.03 0.02 0.03 0.04 0.05 0.05 0.06 0.06 0.05 0.05
0.01 0.01 0.00 0.01 0.00 0.00 0.00 0.00 0.00 0.00 0.00 0.00 0.00 0.00 0.00 0.00 0.01 0.01 0.01 0.01 0.01 0.01 0.00 0.00 0.00 0.00 0.00 0.01 0.01 0.01 0.02 0.02 0.03 0.04 0.04 0.03 0.03 0.03 0.03 0.04 0.04 0.04 0.03 0.04 0.05 0.04 0.05 0.05 0.04
0.00 0.00 0.01 0.00 0.01 0.01 0.00 0.00 0.00 0.00 0.00 0.00 0.00 0.00 0.00 0.00 0.01 0.01 0.01 0.02 0.02 0.01 0.01 0.00 0.00 0.00 0.00 0.01 0.02 0.02 0.02 0.02 0.02 0.02 0.02 0.02 0.03 0.03 0.04 0.05 0.06 0.06 0.06 0.06 0.06 0.04 0.03 0.04 0.04
0.00 0.00 0.00 0.00 0.00 0.01 0.01 0.00 0.00 0.00 0.00 0.00 0.00 0.00 0.00 0.01 0.01 0.01 0.02 0.02 0.01 0.01 0.00 0.00 0.00 0.00 0.01 0.01 0.01 0.01 0.01 0.01 0.01 0.01 0.01 0.02 0.02 0.03 0.04 0.04 0.05 0.06 0.08 0.08 0.08 0.05 0.03 0.04 0.04
0.00 0.00 0.00 0.00 0.00 0.00 0.00 0.00 0.00 0.00 0.00 0.00 0.00 0.00 0.00 0.01 0.01 0.01 0.01 0.01 0.00 0.01 0.01 0.00 0.00 0.00 0.01 0.01 0.01 0.01 0.01 0.01 0.01 0.01 0.01 0.01 0.02 0.03 0.03 0.02 0.02 0.03 0.04 0.04 0.04 0.03 0.04 0.04 0.04
MSLP
1008.20 1008.69 1009.37 1010.09 1010.73 1011.17 1011.39 1011.42 1011.33 1011.23 1011.19 1011.25 1011.35 1011.41 1011.32 1010.99 1010.40 1009.57 1008.62 1007.67 1006.81 1006.13 1005.60 1005.14 1004.65 1004.04 1003.26 1002.35 1001.39 1000.52 999.81 999.24 998.67 997.89 996.57 994.48 991.50 987.71 983.41 979.12 975.47 973.01 972.15 973.07 975.61 979.37 983.80 988.25 992.19
1008.35 1009.01 1009.81 1010.59 1011.22 1011.60 1011.71 1011.61 1011.38 1011.15 1011.01 1010.99 1011.05 1011.09 1011.01 1010.73 1010.20 1009.46 1008.60 1007.72 1006.93 1006.27 1005.72 1005.21 1004.65 1003.95 1003.12 1002.19 1001.28 1000.49 999.86 999.35 998.75 997.76 996.06 993.38 989.61 984.90 979.63 974.43 970.03 967.07 966.03 967.09 970.09 974.55 979.84 985.19 989.99
1008.57 1009.38 1010.27 1011.08 1011.67 1011.97 1011.96 1011.73 1011.37 1011.03 1010.79 1010.69 1010.69 1010.70 1010.61 1010.35 1009.85 1009.16 1008.36 1007.55 1006.81 1006.19 1005.65 1005.13 1004.53 1003.81 1002.96 1002.05 1001.20 1000.48 999.93 999.46 998.82 997.68 995.69 992.57 988.25 982.90 976.96 971.14 966.23 962.95 961.80 962.97 966.28 971.23 977.11 983.08 988.47
1008.85 1009.77 1010.71 1011.51 1012.05 1012.25 1012.13 1011.78 1011.33 1010.89 1010.59 1010.43 1010.38 1010.35 1010.24 1009.95 1009.46 1008.79 1008.02 1007.25 1006.56 1005.97 1005.45 1004.95 1004.36 1003.65 1002.81 1001.94 1001.13 1000.47 999.98 999.54 998.89 997.69 995.58 992.29 987.73 982.13 975.95 969.91 964.82 961.44 960.27 961.49 964.93 970.06 976.14 982.35 987.95
1009.19 1010.15 1011.09 1011.85 1012.31 1012.42 1012.22 1011.79 1011.27 1010.80 1010.46 1010.28 1010.21 1010.15 1010.00 1009.69 1009.17 1008.48 1007.71 1006.96 1006.29 1005.73 1005.25 1004.77 1004.22 1003.53 1002.73 1001.88 1001.10 1000.47 1000.01 999.59 998.98 997.83 995.80 992.62 988.22 982.80 976.83 970.99 966.10 962.85 961.74 962.95 966.29 971.26 977.14 983.13 988.53
1009.56 1010.51 1011.40 1012.08 1012.45 1012.48 1012.21 1011.75 1011.22 1010.77 1010.45 1010.29 1010.23 1010.16 1009.99 1009.63 1009.08 1008.37 1007.58 1006.82 1006.16 1005.62 1005.17 1004.72 1004.19 1003.53 1002.75 1001.91 1001.13 1000.49 1000.02 999.62 999.09 998.10 996.33 993.54 989.65 984.82 979.48 974.25 969.86 966.95 965.98 967.10 970.13 974.62 979.91 985.27 990.08
1009.93 1010.83 1011.62 1012.19 1012.46 1012.42 1012.11 1011.66 1011.17 1010.78 1010.54 1010.44 1010.42 1010.37 1010.20 1009.83 1009.25 1008.50 1007.69 1006.91 1006.25 1005.72 1005.29 1004.87 1004.37 1003.72 1002.95 1002.09 1001.27 1000.57 1000.06 999.67 999.23 998.46 997.09 994.88 991.75 987.82 983.42 979.09 975.43 973.02 972.22 973.17 975.74 979.50 983.91 988.33 992.25
1010.28 1011.07 1011.74 1012.19 1012.37 1012.26 1011.95 1011.53 1011.12 1010.83 1010.69 1010.68 1010.73 1010.74 1010.59 1010.22 1009.63 1008.87 1008.04 1007.25 1006.59 1006.06 1005.63 1005.23 1004.75 1004.12 1003.33 1002.44 1001.55 1000.77 1000.19 999.77 999.40 998.87 997.94 996.39 994.13 991.21 987.91 984.61 981.80 979.95 979.34 980.09 982.09 985.00 988.37 991.70 994.60
1010.58 1011.24 1011.77 1012.10 1012.18 1012.03 1011.73 1011.36 1011.05 1010.87 1010.85 1010.95 1011.09 1011.15 1011.05 1010.72 1010.15 1009.39 1008.57 1007.79 1007.12 1006.60 1006.18 1005.79 1005.32 1004.70 1003.90 1002.97 1002.01 1001.14 1000.45 999.97 999.65 999.31 998.76 997.83 996.40 994.48 992.24 989.96 988.00 986.69 986.26 986.80 988.21 990.25 992.59 994.84 996.74
1010.81 1011.34 1011.74 1011.95 1011.95 1011.77 1011.48 1011.18 1010.95 1010.88 1010.97 1011.17 1011.40 1011.55 1011.51 1011.22 1010.69 1009.98 1009.19 1008.43 1007.78 1007.26 1006.85 1006.48 1006.03 1005.43 1004.63 1003.68 1002.67 1001.71 1000.91 1000.35 1000.00 999.77 999.50 999.05 998.30 997.22 995.89 994.49 993.25 992.41 992.13 992.47 993.36 994.64 996.06 997.39 998.44
1010.97 1011.37 1011.65 1011.76 1011.70 1011.51 1011.24 1011.00 1010.85 1010.87 1011.04 1011.32 1011.62 1011.83 1011.86 1011.65 1011.19 1010.54 1009.81 1009.09 1008.46 1007.96 1007.57 1007.21 1006.79 1006.21 1005.45 1004.52 1003.49 1002.48 1001.60 1000.94 1000.52 1000.30 1000.17 1000.01 999.72 999.23 998.57 997.83 997.15 996.67 996.50 996.67 997.16 997.84 998.57 999.20 999.65
1011.07 1011.37 1011.55 1011.59 1011.49 1011.29 1011.05 1010.85 1010.77 1010.84 1011.06 1011.39 1011.73 1011.99 1012.09 1011.95 1011.57 1011.01 1010.35 1009.68 1009.09 1008.61 1008.23 1007.89 1007.51 1006.99 1006.30 1005.43 1004.45 1003.44 1002.51 1001.76 1001.25 1000.97 1000.84 1000.79 1000.72 1000.57 1000.31 999.99 999.66 999.42 999.32 999.39 999.60 999.89 1000.18 1000.39 1000.48
1011.16 1011.37 1011.47 1011.45 1011.33 1011.14 1010.93 1010.77 1010.72 1010.82 1011.06 1011.40 1011.76 1012.06 1012.20 1012.14 1011.85 1011.39 1010.81 1010.20 1009.65 1009.19 1008.81 1008.50 1008.15 1007.71 1007.11 1006.35 1005.46 1004.51 1003.60 1002.82 1002.22 1001.83 1001.61 1001.51 1001.47 1001.43 1001.34 1001.21 1001.07 1000.95 1000.89 1000.90 1000.97 1001.07 1001.15 1001.17 1001.15
1011.26 1011.40 1011.44 1011.39 1011.26 1011.09 1010.91 1010.78 1010.75 1010.85 1011.07 1011.40 1011.75 1012.07 1012.25 1012.26 1012.07 1011.69 1011.20 1010.66 1010.13 1009.68 1009.31 1008.99 1008.68 1008.31 1007.83 1007.21 1006.46 1005.64 1004.80 1004.03 1003.39 1002.89 1002.55 1002.33 1002.19 1002.09 1002.00 1001.90 1001.81 1001.73 1001.69 1001.68 1001.71 1001.76 1001.80 1001.82 1001.83
1011.39 1011.47 1011.47 1011.41 1011.29 1011.13 1010.98 1010.87 1010.85 1010.93 1011.13 1011.43 1011.76 1012.07 1012.29 1012.37 1012.26 1011.98 1011.57 1011.09 1010.59 1010.14 1009.75 1009.41 1009.11 1008.80 1008.42 1007.95 1007.37 1006.71 1006.01 1005.31 1004.67 1004.12 1003.66 1003.31 1003.03 1002.81 1002.62 1002.47 1002.35 1002.26 1002.21 1002.22 1002.26 1002.33 1002.43 1002.54 1002.66
1011.57 1011.59 1011.56 1011.49 1011.38 1011.26 1011.14 1011.05 1011.03 1011.09 1011.25 1011.50 1011.80 1012.11 1012.36 1012.49 1012.48 1012.30 1011.97 1011.55 1011.07 1010.60 1010.17 1009.80 1009.49 1009.20 1008.90 1008.56 1008.15 1007.67 1007.12 1006.54 1005.96 1005.40 1004.88 1004.43 1004.03 1003.69 1003.40 1003.17 1002.99 1002.87 1002.81 1002.82 1002.89 1003.01 1003.17 1003.37 1003.59
1011.77 1011.74 1011.69 1011.61 1011.53 1011.44 1011.35 1011.28 1011.25 1011.28 1011.40 1011.60 1011.87 1012.17 1012.45 1012.65 1012.73 1012.64 1012.40 1012.04 1011.58 1011.10 1010.63 1010.21 1009.86 1009.56 1009.31 1009.06 1008.78 1008.45 1008.06 1007.62 1007.13 1006.62 1006.10 1005.61 1005.15 1004.73 1004.37 1004.08 1003.85 1003.70 1003.63 1003.63 1003.70 1003.84 1004.03 1004.27 1004.54
1011.94 1011.87 1011.81 1011.76 1011.71 1011.65 1011.59 1011.53 1011.48 1011.48 1011.55 1011.71 1011.95 1012.24 1012.55 1012.81 1012.97 1012.99 1012.85 1012.55 1012.13 1011.65 1011.14 1010.67 1010.26 1009.93 1009.68 1009.48 1009.28 1009.07 1008.81 1008.49 1008.11 1007.68 1007.21 1006.73 1006.27 1005.84 1005.46 1005.15 1004.90 1004.72 1004.62 1004.59 1004.63 1004.74 1004.90 1005.11 1005.36
1012.03 1011.96 1011.91 1011.89 1011.88 1011.86 1011.83 1011.77 1011.70 1011.66 1011.68 1011.78 1011.98 1012.26 1012.59 1012.91 1013.17 1013.29 1013.25 1013.05 1012.69 1012.22 1011.69 1011.18 1010.73 1010.36 1010.08 1009.88 1009.72 1009.57 1009.40 1009.17 1008.88 1008.53 1008.13 1007.71 1007.29 1006.89 1006.54 1006.24 1006.00 1005.81 1005.68 1005.60 1005.57 1005.59 1005.66 1005.78 1005.95
1012.03 1011.98 1011.98 1012.01 1012.05 1012.08 1012.07 1012.01 1011.91 1011.81 1011.76 1011.79 1011.94 1012.19 1012.54 1012.91 1013.25 1013.48 1013.56 1013.46 1013.18 1012.77 1012.27 1011.75 1011.26 1010.85 1010.54 1010.32 1010.16 1010.03 1009.88 1009.70 1009.46 1009.17 1008.83 1008.47 1008.11 1007.78 1007.48 1007.23 1007.01 1006.82 1006.66 1006.52 1006.39 1006.30 1006.24 1006.23 1006.27
1011.91 1011.93 1012.01 1012.13 1012.24 1012.31 1012.32 1012.24 1012.09 1011.93 1011.79 1011.73 1011.81 1012.03 1012.36 1012.77 1013.18 1013.51 1013.71 1013.73 1013.56 1013.23 1012.80 1012.31 1011.83 1011.41 1011.08 1010.83 1010.64 1010.49 1010.34 1010.15 1009.93 1009.66 1009.36 1009.05 1008.75 1008.48 1008.24 1008.03 1007.85 1007.66 1007.47 1007.27 1007.05 1006.84 1006.65 1006.51 1006.43
1011.73 1011.85 1012.04 1012.26 1012.45 1012.58 1012.59 1012.49 1012.28 1012.02 1011.78 1011.63 1011.61 1011.76 1012.07 1012.49 1012.95 1013.37 1013.67 1013.82 1013.78 1013.57 1013.23 1012.82 1012.39 1012.00 1011.67 1011.41 1011.19 1011.01 1010.83 1010.62 1010.38 1010.10 1009.81 1009.51 1009.24 1009.01 1008.81 1008.65 1008.49 1008.32 1008.11 1007.87 1007.58 1007.27 1006.97 1006.71 1006.53
1011.52 1011.77 1012.09 1012.43 1012.72 1012.89 1012.91 1012.77 1012.48 1012.12 1011.76 1011.49 1011.37 1011.44 1011.70 1012.11 1012.59 1013.08 1013.48 1013.74 1013.82 1013.74 1013.52 1013.22 1012.87 1012.54 1012.25 1012.00 1011.79 1011.59 1011.37 1011.13 1010.85 1010.55 1010.23 1009.93 1009.66 1009.45 1009.28 1009.14 1009.01 1008.85 1008.64 1008.37 1008.05 1007.69 1007.33 1007.00 1006.75
1011.36 1011.76 1012.21 1012.67 1013.03 1013.24 1013.25 1013.06 1012.69 1012.23 1011.75 1011.35 1011.13 1011.11 1011.30 1011.67 1012.16 1012.68 1013.15 1013.50 1013.70 1013.74 1013.64 1013.45 1013.21 1012.96 1012.73 1012.53 1012.34 1012.15 1011.93 1011.66 1011.36 1011.02 1010.68 1010.35 1010.08 1009.85 1009.69 1009.56 1009.45 1009.31 1009.12 1008.87 1008.55 1008.18 1007.79 1007.44 1007.16
1011.30 1011.82 1012.39 1012.94 1013.36 1013.59 1013.58 1013.34 1012.89 1012.32 1011.73 1011.23 1010.90 1010.79 1010.91 1011.24 1011.71 1012.24 1012.75 1013.16 1013.44 1013.58 1013.59 1013.50 1013.37 1013.21 1013.06 1012.93 1012.79 1012.62 1012.42 1012.16 1011.84 1011.49 1011.13 1010.79 1010.49 1010.26 1010.09 1009.97 1009.87 1009.75 1009.59 1009.38 1009.09 1008.76 1008.40 1008.06 1007.77
1011.36 1011.97 1012.61 1013.21 1013.66 1013.89 1013.85 1013.55 1013.03 1012.38 1011.71 1011.11 1010.70 1010.51 1010.58 1010.86 1011.30 1011.82 1012.33 1012.77 1013.10 1013.29 1013.38 1013.38 1013.33 1013.26 1013.19 1013.12 1013.03 1012.92 1012.76 1012.53 1012.24 1011.90 1011.54 1011.19 1010.89 1010.65 1010.47 1010.35 1010.26 1010.17 1010.05 1009.89 1009.67 1009.39 1009.09 1008.78 1008.52
1011.51 1012.16 1012.83 1013.43 1013.87 1014.07 1013.99 1013.64 1013.07 1012.36 1011.63 1010.99 1010.53 1010.29 1010.31 1010.55 1010.96 1011.45 1011.94 1012.38 1012.72 1012.95 1013.07 1013.12 1013.12 1013.10 1013.09 1013.08 1013.06 1013.01 1012.89 1012.71 1012.47 1012.16 1011.83 1011.50 1011.20 1010.96 1010.78 1010.66 1010.59 1010.52 1010.45 1010.33 1010.18 1009.98 1009.74 1009.50 1009.26
1011.72 1012.33 1012.97 1013.53 1013.92 1014.07 1013.94 1013.55 1012.95 1012.23 1011.49 1010.84 1010.36 1010.12 1010.11 1010.33 1010.70 1011.16 1011.63 1012.04 1012.37 1012.59 1012.71 1012.77 1012.79 1012.81 1012.83 1012.86 1012.88 1012.87 1012.81 1012.69 1012.49 1012.23 1011.95 1011.65 1011.37 1011.14 1010.97 1010.85 1010.78 1010.73 1010.69 1010.63 1010.53 1010.41 1010.24 1010.05 1009.86
1011.90 1012.44 1012.99 1013.47 1013.77 1013.86 1013.70 1013.29 1012.70 1011.99 1011.29 1010.67 1010.23 1010.00 1010.00 1010.19 1010.54 1010.97 1011.40 1011.78 1012.07 1012.27 1012.38 1012.43 1012.45 1012.46 1012.48 1012.52 1012.55 1012.57 1012.55 1012.47 1012.32 1012.11 1011.87 1011.61 1011.36 1011.15 1010.98 1010.86 1010.79 1010.75 1010.72 1010.69 1010.64 1010.57 1010.47 1010.34 1010.19
1012.01 1012.43 1012.87 1013.23 1013.46 1013.48 1013.29 1012.89 1012.34 1011.70 1011.07 1010.52 1010.14 1009.95 1009.97 1010.16 1010.49 1010.88 1011.27 1011.61 1011.86 1012.03 1012.12 1012.15 1012.15 1012.15 1012.15 1012.18 1012.21 1012.22 1012.21 1012.14 1012.02 1011.85 1011.64 1011.41 1011.19 1010.98 1010.81 1010.68 1010.59 1010.54 1010.51 1010.48 1010.46 1010.43 1010.38 1010.31 1010.22
Thickness
5814 5817 5817 5811 5805 5801 5792 5798 5806 5803 5803 5808 5808 5805 5798 5791 5785 5776 5797 5805 5804 5802 5799 5794 5791 5790 5790 5789 5789 5788 5787 5787 5785 5784 5784 5783 5782 5782 5781 5781 5780 5779 5779 5778 5777 5775 5774 5773 5772
5822 5820 5815 5812 5805 5790 5789 5802 5801 5801 5806 5811 5809 5806 5800 5794 5799 5797 5800 5802 5803 5802 5799 5795 5789 5789 5788 5788 5788 5787 5787 5786 5785 5783 5783 5782 5781 5781 5781 5780 5780 5780 5780 5778 5776 5775 5773 5773 5771
5823 5821 5814 5814 5802 5793 5791 5803 5804 5809 5813 5811 5805 5805 5799 5792 5797 5799 5802 5804 5804 5801 5798 5793 5789 5788 5787 5787 5786 5787 5785 5785 5784 5783 5782 5781 5780 5780 5780 5779 5779 5780 5780 5778 5776 5774 5773 5772 5771
5823 5819 5819 5811 5798 5804 5806 5809 5812 5809 5810 5812 5808 5799 5799 5801 5802 5804 5805 5805 5803 5801 5799 5793 5789 5787 5786 5785 5785 5786 5784 5783 5783 5782 5781 5780 5779 5779 5778 5778 5779 5780 5779 5777 5775 5774 5773 5772 5771
5827 5822 5814 5806 5803 5810 5817 5817 5817 5809 5806 5808 5807 5796 5793 5802 5807 5807 5805 5804 5802 5801 5799 5794 5788 5787 5785 5785 5784 5784 5782 5782 5781 5780 5780 5779 5778 5778 5777 5777 5778 5779 5778 5776 5775 5773 5773 5772 5771
5824 5825 5809 5799 5802 5812 5818 5821 5818 5811 5808 5808 5806 5798 5793 5803 5804 5805 5805 5804 5803 5800 5799 5795 5788 5787 5785 5784 5783 5783 5781 5780 5780 5779 5779 5778 5777 5777 5776 5777 5777 5777 5777 5776 5774 5773 5773 5772 5771
5821 5820 5810 5808 5805 5808 5815 5824 5818 5812 5807 5807 5810 5799 5796 5801 5805 5806 5805 5804 5802 5800 5798 5796 5793 5788 5785 5784 5782 5781 5780 5779 5779 5778 5778 5777 5776 5776 5776 5776 5776 5776 5775 5775 5774 5773 5772 5772 5772
5832 5825 5815 5813 5809 5808 5820 5824 5822 5816 5809 5816 5815 5800 5794 5800 5807 5806 5804 5802 5800 5799 5797 5795 5794 5791 5789 5787 5782 5781 5779 5779 5778 5778 5777 5776 5776 5776 5776 5776 5775 5775 5774 5774 5774 5773 5772 5772 5771
5835 5822 5811 5814 5813 5814 5824 5821 5821 5825 5817 5813 5814 5810 5808 5808 5807 5803 5800 5798 5797 5796 5796 5795 5794 5791 5790 5788 5785 5783 5780 5779 5778 5778 5777 5777 5779 5779 5777 5776 5774 5774 5773 5773 5773 5772 5772 5772 5771
5833 5818 5816 5826 5829 5825 5824 5821 5820 5818 5810 5807 5808 5809 5811 5808 5804 5800 5797 5795 5794 5793 5794 5794 5793 5790 5789 5788 5786 5785 5784 5781 5780 5779 5778 5778 5778 5778 5778 5775 5774 5773 5773 5772 5772 5772 5772 5773 5775
5834 5822 5828 5832 5836 5833 5826 5824 5826 5818 5807 5809 5806 5806 5807 5805 5803 5800 5798 5797 5796 5795 5794 5794 5791 5789 5788 5787 5785 5784 5783 5781 5781 5779 5778 5777 5777 5778 5778 5777 5776 5774 5774 5774 5773 5774 5776 5776 5775
5831 5831 5834 5834 5837 5833 5828 5825 5822 5818 5814 5821 5818 5814 5809 5805 5803 5802 5799 5798 5797 5795 5793 5793 5792 5789 5786 5784 5784 5783 5783 5782 5781 5778 5777 5778 5777 5777 5776 5776 5776 5775 5774 5773 5774 5774 5774 5774 5774
5831 5832 5836 5838 5837 5834 5830 5824 5819 5816 5822 5824 5820 5814 5809 5807 5805 5804 5803 5800 5797 5793 5793 5792 5790 5787 5784 5782 5781 5782 5781 5781 5780 5777 5775 5775 5776 5775 5775 5774 5774 5774 5774 5773 5772 5773 5772 5772 5772
5835 5836 5837 5838 5836 5834 5826 5824 5820 5816 5823 5819 5815 5812 5811 5808 5806 5803 5800 5797 5795 5793 5792 5792 5789 5786 5783 5781 5779 5779 5780 5778 5778 5776 5774 5773 5774 5774 5773 5773 5772 5773 5772 5772 5772 5771 5771 5771 5771
5840 5833 5833 5835 5835 5834 5829 5816 5816 5822 5823 5816 5813 5812 5810 5808 5807 5803 5802 5799 5797 5794 5792 5790 5788 5785 5782 5781 5780 5779 5778 5777 5776 5775 5773 5772 5772 5772 5772 5772 5772 5771 5771 5770 5770 5770 5770 5770 5770
5838 5831 5822 5830 5834 5834 5824 5807 5818 5826 5821 5814 5813 5811 5808 5806 5806 5805 5804 5800 5798 5795 5792 5790 5789 5786 5782 5780 5778 5779 5778 5776 5775 5775 5773 5771 5771 5770 5770 5771 5770 5770 5770 5771 5769 5770 5769 5768 5768
5829 5821 5820 5825 5834 5833 5825 5813 5820 5826 5821 5815 5813 5812 5808 5806 5805 5805 5805 5802 5799 5795 5791 5789 5787 5784 5782 5780 5779 5778 5776 5774 5774 5774 5773 5771 5769 5769 5769 5768 5768 5769 5770 5770 5770 5768 5767 5765 5765
5817 5820 5819 5820 5831 5829 5822 5817 5821 5824 5821 5816 5814 5812 5808 5805 5804 5806 5805 5803 5799 5795 5791 5788 5786 5783 5781 5780 5778 5777 5774 5773 5773 5772 5770 5768 5768 5767 5768 5768 5766 5768 5768 5767 5766 5764 5764 5763 5763
5827 5822 5818 5824 5834 5827 5820 5817 5820 5822 5819 5816 5814 5813 5809 5807 5808 5806 5804 5801 5798 5794 5790 5787 5783 5781 5779 5778 5776 5774 5773 5772 5771 5770 5767 5767 5765 5765 5765 5767 5765 5765 5765 5763 5764 5763 5762 5761 5761
5826 5820 5820 5825 5831 5825 5819 5817 5823 5822 5818 5818 5816 5813 5811 5808 5805 5802 5801 5799 5796 5791 5788 5786 5783 5781 5779 5777 5775 5774 5772 5772 5770 5768 5766 5765 5764 5763 5764 5762 5763 5762 5761 5759 5759 5759 5759 5759 5760
5825 5822 5821 5820 5825 5827 5818 5811 5818 5821 5822 5819 5818 5817 5815 5809 5804 5801 5799 5797 5795 5791 5788 5786 5783 5780 5777 5776 5775 5774 5771 5770 5769 5766 5764 5763 5761 5761 5760 5759 5760 5759 5759 5757 5756 5756 5754 5754 5756
5820 5832 5827 5821 5815 5816 5816 5801 5813 5819 5816 5815 5815 5815 5813 5811 5808 5805 5801 5797 5795 5792 5790 5785 5781 5779 5776 5775 5773 5770 5767 5765 5765 5764 5763 5761 5759 5758 5757 5756 5756 5755 5757 5754 5755 5754 5753 5750 5750
5827 5834 5829 5824 5818 5815 5815 5806 5812 5819 5810 5812 5815 5815 5814 5812 5809 5805 5802 5798 5796 5794 5790 5786 5781 5777 5775 5773 5771 5768 5767 5766 5765 5763 5760 5758 5757 5756 5755 5753 5752 5751 5751 5750 5749 5749 5748 5749 5747
5832 5828 5825 5824 5821 5799 5810 5805 5804 5817 5812 5813 5816 5815 5813 5812 5809 5806 5803 5799 5796 5793 5789 5786 5780 5776 5774 5771 5769 5766 5763 5762 5760 5758 5756 5755 5755 5753 5751 5750 5748 5747 5747 5745 5744 5744 5743 5742 5742
5828 5817 5803 5798 5799 5800 5814 5806 5806 5817 5820 5817 5814 5814 5813 5811 5808 5803 5800 5796 5793 5791 5788 5785 5779 5774 5772 5770 5767 5765 5762 5760 5757 5755 5754 5752 5752 5750 5747 5746 5744 5743 5742 5741 5740 5739 5738 5737 5735
5824 5820 5797 5784 5790 5804 5808 5802 5813 5821 5822 5821 5818 5815 5812 5809 5806 5802 5799 5795 5793 5790 5787 5783 5778 5773 5771 5768 5765 5763 5761 5759 5757 5753 5751 5749 5749 5747 5744 5742 5740 5739 5738 5738 5736 5737 5734 5733 5731
5819 5819 5827 5811 5804 5797 5804 5809 5812 5819 5814 5814 5813 5810 5808 5806 5805 5802 5799 5796 5793 5789 5785 5782 5776 5771 5769 5766 5763 5760 5757 5755 5752 5749 5748 5747 5744 5744 5741 5738 5736 5735 5733 5732 5732 5730 5728 5728 5727
5827 5826 5816 5805 5784 5781 5795 5801 5805 5804 5805 5808 5807 5806 5805 5804 5802 5800 5798 5795 5793 5790 5785 5780 5775 5770 5767 5764 5761 5758 5753 5750 5748 5746 5742 5741 5739 5738 5736 5734 5732 5730 5729 5727 5726 5726 5723 5721 5721
5813 5813 5809 5808 5803 5785 5782 5797 5816 5810 5810 5807 5806 5805 5803 5801 5799 5797 5795 5793 5791 5788 5783 5777 5772 5768 5764 5761 5757 5753 5749 5747 5744 5741 5739 5737 5735 5733 5730 5728 5726 5724 5723 5722 5720 5720 5718 5717 5716
5819 5815 5810 5793 5788 5793 5789 5796 5820 5817 5815 5810 5805 5803 5801 5799 5797 5794 5791 5789 5785 5782 5779 5774 5770 5765 5761 5757 5753 5749 5746 5743 5740 5737 5734 5731 5729 5727 5725 5723 5721 5719 5717 5716 5714 5713 5712 5711 5710